TimeAKST,TemperatureF,Dew PointF,Humidity,Sea Level PressureIn,VisibilityMPH,Wind Direction,Wind SpeedMPH,Gust SpeedMPH,PrecipitationIn,Events,Conditions,WindDirDegrees,DateUTC
12:16 AM,23.0,21.2,93,29.28,3.0,ENE,5.8,-,N/A,,Overcast,70,2012-12-09 09:16:00
12:36 AM,21.2,21.2,100,29.27,2.0,East,8.1,-,N/A,,Overcast,80,2012-12-09 09:36:00
12:56 AM,21.2,21.2,100,29.27,3.0,East,8.1,-,N/A,,Overcast,90,2012-12-09 09:56:00
1:16 AM,21.2,21.2,100,29.27,5.0,East,8.1,-,N/A,,Overcast,80,2012-12-09 10:16:00
1:36 AM,21.2,21.2,100,29.27,5.0,East,5.8,-,N/A,,Overcast,80,2012-12-09 10:36:00
1:56 AM,21.2,21.2,100,29.27,5.0,East,5.8,-,N/A,,Overcast,100,2012-12-09 10:56:00
2:16 AM,21.2,21.2,100,29.27,7.0,East,6.9,-,N/A,,Overcast,90,2012-12-09 11:16:00
2:56 AM,21.2,21.2,100,29.27,10.0,East,5.8,-,N/A,,Overcast,80,2012-12-09 11:56:00
3:16 AM,21.2,21.2,100,29.28,10.0,East,4.6,-,N/A,,Overcast,80,2012-12-09 12:16:00
3:36 AM,21.2,21.2,100,29.28,10.0,ENE,4.6,-,N/A,,Overcast,70,2012-12-09 12:36:00
3:56 AM,21.2,19.4,93,29.28,10.0,East,5.8,-,N/A,,Overcast,80,2012-12-09 12:56:00
4:16 AM,21.2,21.2,100,29.28,10.0,East,4.6,-,N/A,,Overcast,90,2012-12-09 13:16:00
4:36 AM,21.2,21.2,100,29.28,9.0,East,4.6,-,N/A,,Overcast,80,2012-12-09 13:36:00
4:56 AM,21.2,21.2,100,29.28,3.0,East,4.6,-,N/A,,Overcast,80,2012-12-09 13:56:00
5:16 AM,21.2,21.2,100,29.29,2.5,East,3.5,-,N/A,,Overcast,100,2012-12-09 14:16:00
5:36 AM,21.2,21.2,100,29.29,1.5,ENE,4.6,-,N/A,,Overcast,70,2012-12-09 14:36:00
5:56 AM,21.2,19.4,93,29.29,2.0,ENE,4.6,-,N/A,,Overcast,70,2012-12-09 14:56:00
6:16 AM,21.2,21.2,100,29.30,3.0,East,4.6,-,N/A,,Mostly Cloudy,80,2012-12-09 15:16:00
6:36 AM,21.2,21.2,100,29.30,5.0,East,4.6,-,N/A,,Overcast,90,2012-12-09 15:36:00
6:56 AM,21.2,21.2,100,29.30,10.0,East,4.6,-,N/A,,Overcast,100,2012-12-09 15:56:00
7:16 AM,21.2,21.2,100,29.30,10.0,East,4.6,-,N/A,,Mostly Cloudy,90,2012-12-09 16:16:00
7:36 AM,21.2,21.2,100,29.30,10.0,East,4.6,-,N/A,,Overcast,80,2012-12-09 16:36:00
7:56 AM,21.2,21.2,100,29.31,10.0,ESE,4.6,-,N/A,,Overcast,110,2012-12-09 16:56:00
8:16 AM,21.2,21.2,100,29.31,10.0,East,4.6,-,N/A,,Overcast,80,2012-12-09 17:16:00
8:36 AM,21.2,19.4,93,29.32,10.0,East,4.6,-,N/A,,Overcast,100,2012-12-09 17:36:00
8:56 AM,21.2,21.2,100,29.32,10.0,East,4.6,-,N/A,,Overcast,90,2012-12-09 17:56:00
9:16 AM,21.2,21.2,100,29.33,10.0,Calm,Calm,-,N/A,,Overcast,0,2012-12-09 18:16:00
9:36 AM,21.2,21.2,100,29.33,10.0,ESE,3.5,-,N/A,,Overcast,120,2012-12-09 18:36:00
9:56 AM,21.2,21.2,100,29.34,4.0,East,3.5,-,N/A,,Overcast,100,2012-12-09 18:56:00
10:16 AM,21.2,21.2,100,29.34,3.0,East,4.6,-,N/A,,Overcast,90,2012-12-09 19:16:00
10:36 AM,23.0,21.2,93,29.34,4.0,East,5.8,-,N/A,,Overcast,90,2012-12-09 19:36:00
10:56 AM,23.0,21.2,93,29.34,4.0,East,5.8,-,N/A,,Overcast,80,2012-12-09 19:56:00
11:16 AM,23.0,21.2,93,29.35,10.0,SE,6.9,-,N/A,,Overcast,130,2012-12-09 20:16:00
11:36 AM,23.0,23.0,100,29.36,10.0,East,6.9,-,N/A,,Overcast,90,2012-12-09 20:36:00
11:56 AM,24.8,23.0,93,29.37,3.0,East,8.1,-,N/A,,Overcast,80,2012-12-09 20:56:00
12:16 PM,24.8,23.0,93,29.37,2.0,East,8.1,-,N/A,,Overcast,80,2012-12-09 21:16:00
12:36 PM,24.8,23.0,93,29.37,2.5,East,9.2,-,N/A,,Overcast,80,2012-12-09 21:36:00
12:56 PM,24.8,23.0,93,29.37,8.0,East,5.8,-,N/A,,Overcast,80,2012-12-09 21:56:00
1:16 PM,24.8,23.0,93,29.38,10.0,East,6.9,-,N/A,,Overcast,90,2012-12-09 22:16:00
1:36 PM,24.8,24.8,100,29.38,10.0,East,5.8,-,N/A,,Overcast,80,2012-12-09 22:36:00
1:56 PM,24.8,23.0,93,29.39,10.0,East,6.9,-,N/A,,Overcast,80,2012-12-09 22:56:00
2:16 PM,24.8,24.8,100,29.39,10.0,ENE,4.6,-,N/A,,Overcast,60,2012-12-09 23:16:00
2:36 PM,24.8,24.8,100,29.39,10.0,East,3.5,-,N/A,,Overcast,90,2012-12-09 23:36:00
2:56 PM,24.8,24.8,100,29.40,10.0,East,3.5,-,N/A,,Overcast,90,2012-12-09 23:56:00
3:16 PM,24.8,24.8,100,29.40,10.0,East,4.6,-,N/A,,Overcast,90,2012-12-10 00:16:00
3:36 PM,24.8,24.8,100,29.40,10.0,ENE,4.6,-,N/A,,Overcast,70,2012-12-10 00:36:00
3:56 PM,26.6,24.8,93,29.41,10.0,ENE,3.5,-,N/A,,Overcast,70,2012-12-10 00:56:00
4:16 PM,26.6,24.8,93,29.41,7.0,ENE,3.5,-,N/A,,Overcast,60,2012-12-10 01:16:00
4:36 PM,26.6,24.8,93,29.41,10.0,ENE,3.5,-,N/A,,Overcast,70,2012-12-10 01:36:00
4:56 PM,26.6,24.8,93,29.42,10.0,Calm,Calm,-,N/A,,Overcast,0,2012-12-10 01:56:00
5:16 PM,26.6,24.8,93,29.43,10.0,Calm,Calm,-,N/A,,Overcast,0,2012-12-10 02:16:00
5:36 PM,26.6,24.8,93,29.43,10.0,West,4.6,-,N/A,,Overcast,270,2012-12-10 02:36:00
5:56 PM,26.6,24.8,93,29.44,5.0,Calm,Calm,-,N/A,,Overcast,0,2012-12-10 02:56:00
6:16 PM,26.6,26.6,100,29.44,3.0,East,4.6,-,N/A,,Overcast,90,2012-12-10 03:16:00
6:36 PM,26.6,26.6,100,29.44,2.0,East,4.6,-,N/A,,Overcast,90,2012-12-10 03:36:00
6:56 PM,26.6,26.6,100,29.44,4.0,Calm,Calm,-,N/A,,Overcast,0,2012-12-10 03:56:00
7:16 PM,26.6,26.6,100,29.45,7.0,Calm,Calm,-,N/A,,Overcast,0,2012-12-10 04:16:00
7:36 PM,26.6,26.6,100,29.45,6.0,Calm,Calm,-,N/A,,Overcast,0,2012-12-10 04:36:00
7:56 PM,26.6,26.6,100,29.46,3.0,Calm,Calm,-,N/A,,Overcast,0,2012-12-10 04:56:00
8:16 PM,26.6,24.8,93,29.46,4.0,Calm,Calm,-,N/A,,Overcast,0,2012-12-10 05:16:00
8:36 PM,26.6,24.8,93,29.47,3.0,West,4.6,-,N/A,,Overcast,280,2012-12-10 05:36:00
8:56 PM,26.6,24.8,93,29.48,2.5,West,4.6,-,N/A,,Overcast,280,2012-12-10 05:56:00
9:16 PM,26.6,26.6,100,29.48,4.0,Calm,Calm,-,N/A,,Overcast,0,2012-12-10 06:16:00
9:36 PM,26.6,26.6,100,29.49,4.0,West,3.5,-,N/A,,Overcast,280,2012-12-10 06:36:00
9:56 PM,26.6,26.6,100,29.50,5.0,West,3.5,-,N/A,,Overcast,270,2012-12-10 06:56:00
10:16 PM,26.6,24.8,93,29.50,2.5,West,3.5,-,N/A,,Overcast,280,2012-12-10 07:16:00
10:36 PM,26.6,24.8,93,29.51,3.0,Calm,Calm,-,N/A,,Overcast,0,2012-12-10 07:36:00
10:56 PM,26.6,26.6,100,29.52,5.0,Calm,Calm,-,N/A,,Overcast,0,2012-12-10 07:56:00
11:16 PM,26.6,26.6,100,29.52,10.0,Calm,Calm,-,N/A,,Overcast,0,2012-12-10 08:16:00
11:56 PM,26.6,26.6,100,29.54,10.0,Calm,Calm,-,N/A,,Overcast,0,2012-12-10 08:56:00